Location: Bottom School (historical)
(37.9078°N, 89.3593°W)
Time: 17:17:35
(UTC+00:00)

Cosmos 1570 Rocket - Pass Details

Date: 05 July 2022
Orbit: 762 x 788 km, 74.1° (Epoch: 18 August)

Event Time Altitude Azimuth Distance (km) Brightness Sun altitude
Exits shadow 08:52:42 26° 249° (WSW) 1,468 5.0 -17.3°
Maximum altitude 08:54:50 37° 294° (WNW) 1,182 4.8 -17.0°
Drops below altitude 10° 08:59:40 10° 2° (N) 2,315 7.2 -16.4°
Sets 09:02:15 0° 10° (N) 3,250 8.3 -16.0°
